FLOCK 2K-26 (42883 NORAD) Tracking and Keplerian Element Data

This shows tracking and keplerian element data for the satellite.

Feedback or suggestion? Click here.




ElementValue
Catalog42883
NameFLOCK 2K-26
Epoch Orbit3282
Epoch Day45.61908634
Epoch Year2018
RAAN308.4624
Inclination96.9928
Eccentricity0.0012507
Argument of Perigee176.3504
Mean Anonmoly183.7834
Mean Motion15.35576723
Decay Rate4.71E-05
L11 42883U 17042BL 18045.61908634 .00004710 00000-0 13807-3 0 9998
L22 42883 96.9928 308.4624 0012507 176.3504 183.7834 15.35576723 32821

Live tracking and technical data element details for FLOCK 2K-26 (NORAD 42883). FLOCK 2K-26 can be tracked NOW for your location showing map with azimuth and elevation plus other details from your city location.

Track the satellite on the map from your city or location and see movement details for azimuth, elevation, latitude, longitude, range, height, and movement on the map or in text.







IsCatalogInMostPopularTable: catalog: 42883, numindb: 102
Update: records affected: 1



GetName: 42883 FLOCK 2K-26

Hit Count: updated at: Sat, 21 Jul 2018 08:05:16 GMT